Theta_e
331 330 329 328 327 326 326 325 324 323 321 320 320 319 318 316 314 312 309 307 306 306 305 305 304 303 303 302 301 300 299 298 297 297 296 295 294 294 293 293 292 292
329 329 328 327 326 325 324 324 324 322 320 319 319 317 315 313 310 307 306 306 305 304 303 302 301 300 299 298 298 297 296 295 295 294 293 293 293 292 292 292 291 291
328 328 327 326 325 324 323 323 322 320 318 318 317 314 311 308 306 305 305 304 303 301 300 299 298 297 296 295 295 294 294 293 293 292 292 292 292 291 291 291 291 290
326 326 326 325 325 324 323 322 319 317 316 315 313 310 307 305 304 304 303 301 300 298 297 296 295 295 294 294 293 293 293 292 292 291 291 291 291 291 291 290 290 290
325 324 324 323 323 322 321 319 316 314 313 311 308 306 304 303 303 301 300 298 297 296 295 294 294 293 293 293 292 292 292 291 291 291 291 291 290 290 290 290 290 289
323 323 322 321 320 319 317 315 313 312 310 307 305 304 303 301 300 298 297 296 295 294 294 293 293 292 292 292 292 292 291 291 291 290 290 290 290 289 289 289 289 289
321 320 320 319 317 316 314 313 311 308 306 304 303 302 300 299 297 296 295 294 294 293 293 292 292 292 292 291 291 291 291 291 290 290 290 290 289 289 289 288 288 288
319 318 317 316 314 313 312 310 307 305 303 302 301 299 298 296 295 294 294 293 293 292 292 292 292 291 291 291 291 291 291 290 290 290 289 289 289 288 288 288 288 287
317 316 315 314 312 311 309 306 304 303 302 300 298 296 295 294 294 293 293 292 292 292 292 291 291 291 291 291 290 290 290 290 289 289 289 288 288 288 288 287 287 287
314 313 312 311 310 308 306 304 302 301 299 297 295 294 294 293 293 292 292 292 292 292 291 291 291 291 290 290 290 289 289 289 288 288 288 288 287 287 287 287 287 287
312 311 310 309 307 305 303 302 300 298 296 295 294 293 293 292 292 292 291 291 291 291 291 290 290 290 290 290 289 289 289 288 288 288 288 287 287 287 286 286 286 286
309 309 308 306 304 302 301 299 297 295 294 293 293 293 292 292 292 291 291 291 291 290 290 290 290 289 289 289 289 288 288 288 288 288 287 287 287 287 286 286 286 286
307 306 305 303 302 300 299 296 294 294 293 292 292 292 292 291 291 291 291 291 290 290 289 289 289 289 289 288 288 288 288 287 287 287 287 287 287 286 286 286 285 285
304 303 302 301 300 298 296 294 293 292 292 292 292 291 291 291 291 291 290 290 289 289 289 289 289 288 288 288 288 288 287 287 287 287 287 286 286 286 286 286 285 285
302 301 300 299 297 295 293 293 292 292 291 291 291 291 291 291 290 290 289 289 289 289 288 288 288 288 288 288 287 287 287 287 287 286 286 286 286 286 286 285 285 284
300 299 298 296 294 293 292 292 291 291 291 291 291 291 291 290 290 289 289 288 288 288 288 288 288 288 287 287 287 287 287 287 286 286 286 285 285 285 285 285 284 284
298 297 295 294 293 292 292 291 291 291 291 290 290 290 290 290 289 289 288 288 288 288 288 288 287 287 287 287 287 287 286 286 286 285 285 285 285 285 284 284 284 284
296 294 293 292 292 291 291 291 290 290 290 290 290 290 290 289 289 289 288 288 288 288 288 287 287 287 287 287 286 286 286 285 285 285 284 284 284 284 284 283 283 283
294 293 292 291 291 291 290 290 290 290 290 290 290 289 289 289 288 288 288 288 287 287 287 287 287 287 286 286 286 285 285 285 284 284 284 284 284 283 283 282 282 281
292 291 291 291 290 290 290 290 290 290 289 289 289 289 288 288 288 288 288 288 287 287 287 287 287 286 286 286 285 285 285 284 284 284 284 284 283 283 282 282 281 281
291 291 290 290 290 290 290 289 290 289 289 289 288 288 288 288 288 288 288 287 287 287 287 287 286 286 286 285 285 284 284 284 284 284 284 283 283 282 282 281 280 280
291 290 290 290 289 289 289 289 289 289 289 288 288 288 287 287 287 287 287 287 287 287 286 286 286 286 285 285 284 284 284 284 284 284 283 283 282 282 281 280 280 280
290 290 290 290 289 289 289 289 289 289 288 288 288 287 287 287 287 287 287 287 286 286 286 286 285 285 285 284 284 284 284 284 284 283 282 282 281 281 280 280 280 279
290 290 290 290 289 289 289 289 288 288 288 287 287 287 287 287 287 286 286 286 286 286 286 285 285 284 284 284 284 284 283 283 282 282 282 281 280 280 280 280 279 278
289 289 290 290 289 289 289 288 288 288 287 287 287 287 287 286 286 286 286 286 285 285 285 285 284 284 284 284 284 283 282 282 282 281 281 280 279 279 279 279 278 278
289 289 289 289 289 289 288 288 288 287 287 287 286 286 286 286 286 285 285 285 285 285 284 284 284 284 284 284 283 283 282 281 281 280 280 279 278 278 278 277 277 277
Wind_Speed
27 26 26 25 25 24 23 21 17 15 14 15 15 14 13 12 10 9 8 7 7 7 8 8 8 8 8 7 7 7 7 7 7 7 6 6 7 7 7 6 6 6
27 27 26 26 25 23 21 19 17 16 16 16 16 14 13 11 10 9 9 9 10 10 10 10 10 9 9 8 8 7 7 6 6 7 6 6 6 6 5 5 5 5
26 27 27 26 25 22 20 18 16 16 17 17 16 14 13 12 12 12 12 12 12 12 11 10 10 9 8 8 7 6 7 6 6 6 5 5 5 5 5 5 6 6
26 26 26 25 24 23 21 19 18 18 18 17 16 14 14 14 15 15 14 13 12 12 11 10 9 9 8 7 6 6 6 6 6 6 5 4 5 5 5 6 7 8
25 25 25 24 23 22 20 19 19 19 18 17 17 17 17 17 17 16 15 14 12 12 11 9 8 8 7 7 6 6 6 6 5 5 4 4 5 6 6 8 8 9
25 24 24 22 21 20 20 20 20 19 19 19 20 20 19 18 17 16 15 13 12 11 10 9 8 8 8 7 6 5 5 5 5 4 4 5 6 6 7 9 10 11
25 24 23 21 20 20 21 21 20 20 21 22 22 21 20 19 18 16 14 13 12 11 10 9 8 8 7 6 5 4 4 4 4 4 5 6 7 8 9 11 12 13
24 23 22 22 23 23 22 21 22 23 24 24 23 22 20 18 17 16 14 12 12 11 10 9 8 7 6 5 4 4 4 4 4 5 7 8 9 10 12 13 15 16
24 24 25 25 25 24 23 24 25 25 25 24 23 22 20 18 16 15 14 13 12 11 10 9 8 7 6 5 4 4 4 5 6 7 8 10 11 12 14 15 17 18
26 26 27 26 25 25 26 27 27 27 25 24 23 21 19 18 16 15 14 13 12 11 10 9 8 7 6 4 4 4 5 6 7 8 9 10 12 13 14 16 18 20
28 28 27 26 27 28 29 29 28 27 25 23 22 20 19 18 17 15 14 13 12 11 10 9 8 6 5 4 4 4 5 6 7 8 9 10 12 14 15 17 19 20
29 28 28 28 30 31 31 30 28 26 25 22 21 20 19 18 17 16 14 12 12 11 10 9 7 6 4 4 4 4 5 6 7 9 10 11 13 15 16 18 19 20
29 29 29 31 32 32 31 29 27 26 24 23 21 20 19 18 17 16 14 13 12 11 9 8 6 5 4 4 4 5 6 7 9 10 11 13 14 16 17 18 19 20
30 31 31 32 32 32 30 29 27 26 24 23 21 20 19 18 17 15 14 13 12 10 9 7 5 4 3 4 4 6 7 8 10 11 13 14 15 16 18 18 19 20
32 33 33 33 33 32 30 29 27 26 24 23 21 20 19 18 17 15 14 13 11 9 8 6 4 3 4 4 5 7 8 9 11 12 14 16 17 17 18 19 20 21
34 35 35 34 33 32 30 29 27 26 24 23 22 20 19 18 16 15 13 12 10 8 7 5 4 4 4 5 6 7 9 10 11 13 15 16 18 19 20 21 21 21
36 36 35 34 33 31 30 29 27 26 24 23 22 21 19 18 17 15 14 12 10 8 6 5 4 3 3 4 6 7 9 11 12 14 15 16 18 20 21 22 22 22
36 36 35 33 32 31 30 29 27 26 24 23 22 21 19 18 16 15 13 11 9 7 5 4 3 2 3 4 6 8 10 12 13 14 15 17 18 19 21 21 22 23
36 36 35 34 32 31 30 29 27 26 25 23 22 20 19 18 16 14 12 10 8 6 5 3 2 2 3 5 7 9 10 12 13 15 16 17 18 19 20 21 22 23
37 36 35 34 32 31 30 29 28 26 25 23 21 20 19 17 16 14 12 10 8 5 4 2 0 2 4 6 8 9 11 12 14 15 17 18 19 19 20 20 21 21
37 36 35 34 32 31 30 29 28 26 25 23 21 20 18 17 15 13 11 10 7 5 3 2 1 3 5 7 8 10 12 13 15 16 18 18 19 19 19 20 20 21
38 37 36 34 33 32 31 30 28 26 25 23 22 20 18 16 14 13 11 9 7 5 3 1 2 4 5 7 9 11 12 14 16 18 19 19 19 20 20 20 20 21
38 37 36 35 34 32 31 30 28 27 25 23 22 20 18 16 14 12 11 9 7 5 2 1 2 4 6 7 9 11 13 15 17 18 19 19 20 20 20 21 21 22
38 38 37 35 34 33 32 31 28 27 25 23 21 19 17 16 14 12 10 8 6 4 2 1 2 4 6 8 10 12 14 16 17 18 20 20 20 21 21 22 22 23
37 37 36 35 34 33 32 30 28 26 25 23 21 19 17 15 14 12 10 8 5 3 1 0 2 5 6 8 10 11 13 15 16 19 21 21 23 24 24 23 23 23
37 36 35 34 33 32 31 29 28 26 24 23 21 18 16 15 13 12 10 7 5 3 1 1 2 5 6 8 9 10 12 14 16 19 21 22 24 24 25 25 23 23
Wind_Direction
215 214 210 203 198 197 196 196 202 213 219 219 220 220 218 215 212 208 201 181 161 146 134 128 124 122 121 116 112 106 100 93 86 81 71 61 54 49 45 36 30 23
208 206 202 197 192 191 194 201 212 220 217 214 215 213 206 201 194 183 169 151 142 134 128 125 122 120 117 112 110 107 101 95 88 83 73 63 56 49 44 34 25 13
198 195 193 193 193 193 197 206 214 215 210 205 203 200 193 185 174 160 151 144 139 134 129 127 123 121 117 112 110 106 100 94 85 82 74 67 60 46 35 24 13 2
188 188 190 192 195 198 203 208 208 201 198 193 188 185 179 170 160 152 146 143 140 135 130 129 126 122 119 114 111 106 100 94 88 84 74 61 47 34 24 13 8 1
185 187 189 191 195 200 205 203 196 188 185 183 177 173 167 159 154 149 146 143 140 136 132 131 129 126 122 116 112 106 99 94 87 81 70 55 37 23 12 4 3 1
185 187 190 194 198 200 196 189 183 179 178 175 168 163 158 155 152 149 147 144 141 139 137 135 132 128 123 119 115 107 98 89 76 67 53 42 29 14 5 359 356 359
185 189 193 196 195 189 184 180 177 175 172 168 161 157 156 154 152 149 148 147 145 143 140 135 131 127 123 118 114 100 89 77 60 47 32 24 18 8 2 358 354 357
191 193 193 191 184 180 179 176 174 171 167 163 158 155 155 155 153 151 150 150 148 144 139 134 130 126 121 117 110 93 76 60 40 27 17 11 9 4 0 357 353 353
193 189 186 183 179 177 176 172 169 166 163 161 157 155 155 156 155 153 152 151 148 142 139 136 132 127 123 118 106 82 60 45 28 18 12 6 3 1 356 354 351 351
186 182 180 179 177 175 172 169 166 163 161 161 158 156 157 157 156 154 153 151 148 145 142 138 134 129 122 110 89 65 44 32 22 14 10 4 359 356 352 350 350 349
180 178 178 177 174 172 169 166 164 161 161 162 161 160 159 158 156 154 153 152 149 145 142 139 135 128 118 99 72 49 31 21 16 10 5 1 356 352 351 350 349 348
178 177 177 175 172 169 167 165 163 162 163 163 164 163 161 158 156 154 154 154 150 146 142 138 132 124 112 89 63 40 27 17 11 6 359 356 354 351 351 349 347 347
178 177 175 172 170 168 166 164 163 164 165 165 165 164 160 158 157 155 155 152 148 145 141 137 130 121 102 76 52 30 23 12 3 360 353 350 350 349 349 348 345 344
176 175 172 170 169 167 166 165 165 167 167 165 164 164 161 159 158 156 154 150 147 146 142 137 133 119 90 58 38 20 12 4 355 350 346 345 347 346 346 345 343 342
173 172 171 170 169 168 167 168 168 168 167 165 165 164 161 159 157 155 152 150 148 147 144 140 131 102 65 37 23 9 359 354 350 347 346 344 342 343 344 343 343 343
172 172 171 171 170 170 170 170 169 168 167 166 165 164 162 159 156 154 152 152 151 150 149 140 117 76 51 25 6 357 349 347 346 345 347 345 342 342 343 342 343 343
173 172 172 172 171 172 172 171 170 169 168 167 166 164 162 159 157 156 154 155 155 154 151 136 105 68 40 11 354 350 345 343 346 346 346 345 344 343 343 343 343 344
174 173 173 173 173 173 173 171 170 170 169 168 167 165 163 160 158 159 158 158 160 158 151 130 101 58 17 358 349 348 347 345 347 348 346 346 346 344 343 344 344 345
176 175 175 175 175 174 173 171 171 171 169 169 168 166 165 162 161 161 160 159 163 163 153 133 104 32 359 351 348 348 348 348 348 347 347 347 346 345 344 345 346 345
178 178 177 176 175 174 173 173 172 171 169 170 170 168 167 165 164 163 163 163 167 171 164 152 108 358 350 346 348 348 346 347 346 345 347 347 346 347 346 346 347 345
180 179 178 176 175 175 174 173 172 171 170 171 171 170 170 168 167 166 166 167 168 175 181 179 337 349 350 347 348 349 346 345 343 343 346 347 346 347 347 346 347 344
182 181 179 177 176 176 174 173 173 172 172 172 172 172 171 170 169 168 169 171 168 174 193 220 348 348 351 352 349 345 342 341 342 343 345 345 346 348 348 347 347 344
185 183 181 179 177 177 175 174 174 174 174 174 174 173 172 171 171 169 169 173 172 173 191 285 346 352 353 352 349 344 341 341 342 343 344 345 347 349 347 346 346 344
187 185 183 181 179 178 176 175 175 176 175 175 175 176 173 171 171 170 170 172 175 175 176 303 340 357 356 350 349 346 342 342 342 342 344 346 348 348 346 345 344 342
188 187 186 183 180 179 177 176 176 177 176 175 175 177 175 172 171 171 169 166 168 176 172 6 350 356 352 346 348 348 344 342 341 343 346 347 347 346 344 344 342 341
189 188 187 184 182 179 178 178 178 178 177 175 175 176 175 172 169 169 169 164 162 171 184 349 347 347 345 344 348 349 346 342 342 347 349 346 344 343 340 340 340 340